FM-5

Last updated on Fri Feb 06 2026 00:02:50 GMT+0000 (Coordinated Universal Time)

1 35493U 09034A 26036.61027860 -.00000202 00000+0 00000+0 0 9990 2 35493 0.0033 131.7980 0001074 55.4397 82.0320 1.00270739 45324
UTC large
Height (km)
Speed (km/s)
/
Latitude / Longitude
Inclination (degrees)
Orbital Period (minutes)
Azimuth
Elevation
Range (km)
Doppler Factor

Next 0 passes for location: London (51.5072 / 0.1276)

Sorry there are no passes over London.